Showing default

GONETS D1 6, 24730

Orbit data source: Space-Track

GONETS D1 6, 24730 is a payload satellite owned by Gonets (CIS) in LEO that was launched on Fri, 14 Feb 1997 UTC via a TSIKLON-3 launch vehicle from the Plesetsk Missile And Space Complex (PKMTR). Payload-class satellites include a variety of spacecraft equipped with specific instruments for various scientific and technological missions. These include communications satellites like Starlink; space stations such as the ISS; scientific satellites like the Hubble; Earth observation satellites from companies like Planet Labs, Umbra, and HawkEye 360; GPS; miniature CubeSats for education and research; and military/defense satellites.

Loading next visibility...
Identifier
24730, 1997-006F
Orbit
LEO
Country
Flag of CISCIS
Related business
Manufacturer
NPO PM
Mission
Non-operational Civil Communications
Bus & Motor
STRELA-3, Unknown motor
Mass
225 kg wet, 225 kg dry
Launch date (UTC)
1997-02-14 (29 years ago)
Launch vehicle
TSIKLON-3
Launch site
Plesetsk Missile And Space Complex (PKMTR)
Object type
Payload
Rocket body
Debris
Shape & HBR
Cyl + 1 Ant, 3.5 m
Radar Cross Section
1.798 m², Medium (>0.1 m² and < 1m²)

Expand to show TLE details & history
Last TLE update: 6 hours ago

TLE from 6 hours ago
0 GONETS D1 6
1 24730U 97006F   26038.30241796  .00000041  00000-0  16808-3 0  9990
2 24730  82.6122 339.6631 0001439 244.1199 115.9744 12.62494247335280
Epoch: 2026-02-07T07:15Z
TLE epoch observation values (Epoch: 2026-02-07T07:15:28.911Z)
Latitude
-0.00004°
Longitude
93.36474°
Altitude
1,415.888 km
Speed
7.152 km/s
True Right ascension
22h 38m 39s
True Declination
0° 00' 00"
Sunlit
Object was in daylight at epoch
Visualization orbit readout
Latitude
Unknown
Longitude
Unknown
Altitude
Unknown
Speed
Unknown
Apparent Right ascension
Unknown
Apparent Declination
Unknown
Sunlit
N/A
Visualization observer readout
Local Sidereal Time
15:39:57
Azimuth
Unknown
Elevation
Unknown
Doppler factor
Unknown
Orbital elements
Apogee altitude
1,411.106 km
Perigee altitude
1,408.865 km
Semi-major axis
7,788.122 km
Eccentricity
0.00014
Inclination
82.6122°
RAAN
339.6631°
Arg. of periapsis
244.1199°
True anomaly
115.98922°
Mean anomaly
115.9744°
Eccentric anomaly
115.98181°
Mean motion
3.15787 °/min
Orbital period
114 mins
BSTAR
0.00016808
Loading maneuver chart data...
Computing Atmospheric mass density...
Loading historical data...
Loading historical data...
Loading historical data...
Loading historical data...
Loading historical data...
Loading historical data...
Loading historical data...

Documentation

Showing up to 5 results
|